Weather in Afanas'yevskoye

Russia / Ivanovo Oblast     56°51′15″N   41°32′50″E
temp.,
°C
wind,
m/s
gust,
m/s
humid.,
%
clouds,
%
prec.,
mm/h
press.,
hPa
HPBL,
m
4 march, thu
thu400:00−2wsw41092100 0.1 1003714
03:00−2wsw51295100 0.3 1000676
06:000wsw61396100 1.4 995928
09:00+1w61389100 2.4 9941227
12:000wnw7117665 0.6 9951466
15:00−1nw6108066 0.6 9971209
18:00−5wnw398866 0.0 998211
21:00−8nw259335 0.0 1000100
5 march, fri
fri500:00−10nw22940 0.0 100121
03:00−12wnw22930 0.0 100321
06:00−12wnw22940 0.0 100422
09:00−9w24910 0.0 1005188
12:00−5w258749 0.0 1005523
15:00−3wnw358174 0.4 1007901
18:00−7nw3791100 0.5 1008175
21:00−11nw4118778 0.5 1012353
6 march, sat
sat600:00−15nw23920 0.0 101478
03:00−16wnw22920 0.0 101626
06:00−17wnw22940 0.0 101620
09:00−13w138925 0.0 1016170
12:00−9wnw2485100 0.1 1016691
15:00−8nw3480100 0.2 1015818
18:00−12wnw2291100 0.0 101421
21:00−14wsw229361 0.0 101522
7 march, sun
sun700:00−15ssw35942 0.0 101293
03:00−14ssw4119113 0.0 1010287
06:00−11ssw6138762 0.0 1006520
09:00−9ssw6139381 0.4 1002728
12:00−5ssw71391100 0.9 9971093
15:00−4ssw61293100 2.6 9931061
18:00−4w71293100 2.1 992962
21:00−8w41281100 2.3 994778
8 march, mon
mon800:00−12sw398663 0.0 995238
03:00−11ssw3108980 0.1 995309
06:00−8sw41093100 0.2 994507
09:00−8ssw4792100 0.6 994477
12:00−5ssw1289100 0.4 995414
15:00−5nw3593100 1.1 997507
18:00−9nw61286100 0.8 1001529
21:00−12wnw3109491 0.8 1005289